Weather in Benguela

Angola     12°36′36″S   13°25′01″E
temp.,
°C
wind,
m/s
gust,
m/s
humid.,
%
clouds,
%
prec.,
mm/h
press.,
hPa
HPBL,
m
7 march, sun
sun701:00+25s1288100 3.1 1014128
04:00+25se2286100 0.6 1012299
07:00+25ene1280100 0.8 1014164
10:00+27n3375100 0.2 1015606
13:00+28nnw437276 0.3 1011570
16:00+27nw447611 0.1 1009483
19:00+26sw238237 0.3 1011409
22:00+27wsw0180100 0.0 1013194
8 march, mon
mon801:00+27wsw2379100 0.0 1012160
04:00+26ssw128084 0.0 101064
07:00+26ese227648 0.0 1011117
10:00+29n33640 0.0 1011625
13:00+29nw55670 0.0 1008378
16:00+28wnw44732 0.2 1007549
19:00+26w238248 0.3 1010525
22:00+26wnw018021 0.3 1012203
9 march, tue
tue901:00+26w228222 0.3 1011325
04:00+25sw228385 0.1 1010255
07:00+26ssw227991 0.2 1012261
10:00+28wnw216611 0.0 1012727
13:00+28wnw44696 0.0 1009462
16:00+28w44720 0.0 1007438
19:00+26w33810 0.0 1009397
22:00+26sw127938 0.0 1011208
10 march, wed
wed1001:00+26wsw128121 0.0 1011136
04:00+26wsw228063 0.0 1010154
07:00+26nnw118169 0.0 1011207
10:00+27nw227475 0.0 1011412
13:00+27wnw447443 0.0 1009371
16:00+28wnw447166 0.1 1008560
19:00+26wnw227840 0.1 1010533
22:00+26ssw238029 0.0 1012378
11 march, thu
thu1101:00+25ssw337951 0.0 1011303
04:00+25sw237989 0.1 1010157
07:00+26ssw017563 0.1 1011141
10:00+28nw3265100 0.0 1011395
13:00+28nw446981 0.0 1009411
16:00+28wnw32686 0.9 1007480
19:00+26w227752 1.4 1010251
22:00+26nnw1177100 0.2 1011166